Location: *
(43.0833°N, 13.0500°E)
Time: 13:14:30
(UTC+00:00)

NOSS 3-1 (C) - Pass Details

Date: 15 November 2019
Orbit: 765 x 1444 km, 63.4° (Epoch: 02 December)

Event Time Altitude Azimuth Distance (km) Brightness Sun altitude
Rises 16:18:07 0° 199° (SSW) 3,250 6.9 -6.5°
Reaches altitude 10° 16:20:27 10° 195° (SSW) 2,363 6.0 -6.9°
Maximum altitude 16:25:41 54° 119° (ESE) 1,035 3.5 -7.8°
Drops below altitude 10° 16:31:41 10° 43° (NE) 2,699 5.3 -8.9°
Enters shadow 16:32:48 - 41° (NE) 3,118 5.6 -9.1°
